Regional Weather Roundup
Issued by NWS Green Bay, WI

Home | Current Version | Previous Version | Graphics & Text | Print | Product List | Glossary Off
Versions: 1 2 3 4 5 6 7 8 9 10 11 12 13 14 15 16 17 18 19 20 21 22 23 24 25 26 27 28 29 30 31 32 33 34 35 36 37 38 39 40 41 42 43 44 45 46 47 48 49 50

000
ASUS43 KGRB 260000
RWRGRB

NORTH-CENTRAL AND NORTHEAST WISCONSIN REGIONAL WEATHER ROUNDUP
NATIONAL WEATHER SERVICE GREEN BAY WI
700 PM CDT WED MAY 25 2016

WIZ005-009-010>012-018-019-260100-
NORTH CENTRAL WISCONSIN

CITY           SKY/WX    TMP DP  RH WIND       PRES   REMARKS
IRONWOOD       CLOUDY    50  48  93 W10       29.90R
MANITOWISH WTR NOT AVBL
ARBOR VITAE    NOT AVBL
EAGLE RIVER    NOT AVBL
LAND O LAKES   NOT AVBL
RHINELANDER    LGT RAIN  65  60  84 SE10G20   29.89F
PHILLIPS       NOT AVBL
ANTIGO         NOT AVBL
TOMAHAWK       NOT AVBL
MERRILL        NOT AVBL
$$

WIZ013-073-260100-
NORTHEAST WISCONSIN

CITY           SKY/WX    TMP DP  RH WIND       PRES   REMARKS
IRON MOUNTAIN  LGT RAIN  67  57  70 SE7       29.94F
MARINETTE      CLOUDY    59  55  87 E5        29.96F
$$

WIZ017-030-035>037-045-260100-
CENTRAL WISCONSIN

CITY           SKY/WX    TMP DP  RH WIND       PRES   REMARKS
MEDFORD        NOT AVBL
WAUSAU         RAIN      65  50  59 E15       29.83F
MOSINEE        CLOUDY    63  63 100 E12G17    29.86F
MARSHFIELD     CLOUDY    66  62  87 SE13      29.84S
WISC RAPIDS    CLOUDY    67  61  81 SE12      29.87R
STEVENS POINT  NOT AVBL
WAUPACA        NOT AVBL
SHAWANO        NOT AVBL
CLINTONVILLE   NOT AVBL
WAUTOMA        LGT RAIN  63  62  97 E13       29.87F
$$

WIZ038-039-048-051-260100-
FOX VALLEY

CITY           SKY/WX    TMP DP  RH WIND       PRES   REMARKS
NWS GREEN BAY  CLOUDY    62  58  86 NE14      29.91F
APPLETON       TSTM      63  61  94 NW6       29.91F
OSHKOSH        LGT RAIN  63  58  83 NE9       29.90R
FOND DU LAC    LGT RAIN  66  61  84 SE15G23   29.87F
$$

WIZ022-050-052-260100-
EAST CENTRAL WISCONSIN

CITY           SKY/WX    TMP DP  RH WIND       PRES   REMARKS
EPHRAIM        NOT AVBL
STURGEON BAY   NOT AVBL
MANITOWOC      NOT AVBL
SHEBOYGAN      LGT RAIN  53  51  93 SE7       29.93S
$$

LMZ563-521-522-541>543-260100-
LAKESHORE

STATION/POSITION TIME  TEMP    WIND        PRES    VSBY  WAVE
                       AIR SEA DIR/SP/G                  HT/PER
                 (UTC) (F)     (DEG/KT/KT) (MB)    (MI)  (FT/S)
SHEBOYGAN LKSHOR 2300   48     360/ 11/ 12 1014.2F
KEWAUNEE LKSHORE 2300                      1013.8F
ALGOMA MARINA    2317           20/ 15/ 21   N/A
NORTHPORT PIER   2300   57      90/  7/ 10 1014.9S
N MID LAKE BUOY  2250   49 45   50/ 10/ 10 1014.4F         1
CHAMBERS ISLAND  2300   59      60/  5/  9 1014.9S
MENOMINEE LKSHOR 2300                      1014.1R
$$




USA.gov is the U.S. government's official web portal to all federal, state and local government web resources and services.